Zurück zum Katalog

FENGYUN 2F DEB

AktivMEO
NORAD 43396·DEBRIS·🇨🇳 China

Gestartet Jan 13, 2012 von Xichang Satellite Launch Center

Loading…

Nächste Überflüge (nächste 24 Stunden)

TLE

AlterndSource: Space-Track

Epoche: Sep 1, 2026, 21:25 UTC

1 43396U 12002D   26244.89286726 -.00000387  00000-0  00000+0 0  9994
2 43396   9.2827  56.5641 0251176 307.1997  50.6453  1.00244886 43531

Verfolge FENGYUN 2F DEB in Echtzeit mit AllMySat

Download on the App Store